Weather History for Minot, ND

Change the Weather History Date:

Sunday, March 2, 2014

  Actual Average Record
Temperature  
Mean Temperature -9 °F 22 °F  
Max Temperature 0 °F 30 °F 52 °F (1934)
Min Temperature -19 °F 14 °F -24 °F (1919)
Degree Days  
Heating Degree Days 74 43  
Month to date heating degree days 156 86  
Since 1 July heating degree days 7389 6662  
Cooling Degree Days 0 0  
Month to date cooling degree days 0 0  
Year to date cooling degree days 0 0  
Moisture  
Dew Point -20 °F    
Average Humidity 60    
Maximum Humidity 68    
Minimum Humidity 51    
Precipitation  
Precipitation 0.00 in 0.01 in 0.50 in (1953)
Month to date precipitation 0.00 0.03  
Year to date precipitation 0.36 0.94  
Sea Level Pressure  
Sea Level Pressure 30.65 in    
Wind  
Wind Speed 10 mph (West)    
Max Wind Speed 18 mph    
Max Gust Speed 22 mph    
Visibility 10 miles    
Events      
T = Trace of Precipitation, MM = Missing Value Source: NWS Daily Summary

Daily Weather History Graph

Daily Weather History Graph

Search for Another Location

Airport:

Trip Planner

Search our weather history database for the weather conditions in past years. The results will help you decide how hot, cold, wet, or windy it might be!

Date:

Astronomy

Mar. 02, 2014 Rise Set
Actual Time 7:24 AM CST 6:30 PM CST
Civil Twilight 6:53 AM CST 7:02 PM CST
Nautical Twilight 6:17 AM CST 7:38 PM CST
Astronomical Twilight 5:40 AM CST 8:14 PM CST
Moon 7:47 AM CST (3/2) 8:41 PM CST (3/2)
Length of Visible Light 12h 09m
Length of Day
11h 06m
Waxing Crescent, 3% of the Moon is Illuminated
Mar 2
Waxing Crescent
Mar 8
First Quarter
Mar 16
Full
Mar 23
Last Quarter
Mar 30
New

Hourly Weather History & Observations

Time (CST) Temp. Windchill Dew Point Humidity Pressure Visibility Wind Dir Wind Speed Gust Speed Precip Events Conditions
12:54 AM -18.9 °F -41.8 °F -27.9 °F 63% 30.70 in 10.0 mi West 12.7 mph - N/A   Clear
1:54 AM -18.0 °F -40.7 °F -27.9 °F 61% 30.69 in 10.0 mi West 12.7 mph - N/A   Clear
2:54 AM -18.0 °F -41.6 °F -27.9 °F 61% 30.69 in 10.0 mi West 13.8 mph - N/A   Clear
3:54 AM -18.9 °F -40.8 °F -27.9 °F 63% 30.68 in 10.0 mi West 11.5 mph - N/A   Clear
4:54 AM -18.9 °F -40.8 °F -29.0 °F 60% 30.68 in 10.0 mi West 11.5 mph - N/A   Clear
5:54 AM -18.9 °F -39.8 °F -27.9 °F 63% 30.68 in 10.0 mi West 10.4 mph - N/A   Clear
6:54 AM -18.9 °F -40.8 °F -27.9 °F 63% 30.68 in 10.0 mi West 11.5 mph - N/A   Clear
7:54 AM -18.0 °F -39.7 °F -27.9 °F 61% 30.68 in 10.0 mi West 11.5 mph - N/A   Clear
8:54 AM -16.1 °F -39.1 °F -27.0 °F 58% 30.69 in 10.0 mi West 13.8 mph - N/A   Clear
9:54 AM -11.9 °F -33.8 °F -24.0 °F 55% 30.69 in 10.0 mi West 13.8 mph - N/A   Clear
10:54 AM -8.0 °F -29.6 °F -20.9 °F 53% 30.69 in 10.0 mi West 15.0 mph - N/A   Clear
11:54 AM -6.0 °F -27.0 °F -18.9 °F 54% 30.68 in 10.0 mi West 15.0 mph - N/A   Clear
12:54 PM -2.0 °F -21.2 °F -17.0 °F 49% 30.67 in 10.0 mi West 13.8 mph - N/A   Clear
1:54 PM -0.0 °F -16.3 °F -14.1 °F 52% 30.65 in 10.0 mi West 10.4 mph - N/A   Clear
2:54 PM -0.9 °F -18.3 °F -14.1 °F 54% 30.63 in 10.0 mi West 11.5 mph - N/A   Clear
3:54 PM -0.0 °F -17.1 °F -13.0 °F 54% 30.63 in 10.0 mi WNW 11.5 mph - N/A   Clear
4:54 PM -0.0 °F -15.3 °F -13.0 °F 54% 30.61 in 10.0 mi West 9.2 mph - N/A   Clear
5:54 PM -0.9 °F -15.3 °F -13.0 °F 57% 30.62 in 10.0 mi WNW 8.1 mph - N/A   Clear
6:54 PM -2.0 °F -13.9 °F -11.9 °F 63% 30.60 in 10.0 mi NW 5.8 mph - N/A   Mostly Cloudy
7:54 PM -2.9 °F -15.0 °F -13.0 °F 62% 30.61 in 10.0 mi West 5.8 mph - N/A   Clear
8:54 PM -5.1 °F - -13.0 °F 69% 30.59 in 10.0 mi Calm Calm - N/A   Clear
9:54 PM -6.0 °F - -14.1 °F 68% 30.57 in 10.0 mi Calm Calm - N/A   Clear
10:54 PM -4.0 °F - -13.0 °F 65% 30.56 in 10.0 mi Calm Calm - N/A   Clear
11:54 PM -5.1 °F - -13.0 °F 69% 30.53 in 10.0 mi Calm Calm - N/A   Scattered Clouds